Showing default

CARTOSAT 2C, 41599

Orbit data source: Space-Track

CARTOSAT 2C, 41599 is a payload satellite owned by ISRO (IN) in SSO that was launched on Wed, 22 Jun 2016 UTC via a PSLV-XL launch vehicle from the Sirharikota (SRI). Payload-class satellites include a variety of spacecraft equipped with specific instruments for various scientific and technological missions. These include communications satellites like Starlink; space stations such as the ISS; scientific satellites like the Hubble; Earth observation satellites from companies like Planet Labs, Umbra, and HawkEye 360; GPS; miniature CubeSats for education and research; and military/defense satellites.

Loading next visibility...
Identifier
41599, 2016-040A
Orbit
SSO
Last TLE update
8 hours ago
Origin
Manufacturer
ISRO
Mission
Operational Civil Imaging
Bus & Motor
IRS-2, AOCS
Mass
727 kg wet, ~600 kg dry
Launch date (UTC)
2016-06-22 (9 years ago)
Launch vehicle
PSLV-XL
Launch site
Sirharikota (SRI)
Object type
Payload
Rocket body
Debris
Shape & HBR
Hex Cyl + 2 Pan, 6 m
Radar Cross Section
6.456 m², Large (>1 m²)

Expand to show TLE details & history

TLE from 8 hours ago
0 CARTOSAT 2C
1 41599U 16040A   25182.20308772  .00003407  00000-0  16451-3 0  9990
2 41599  97.4210 241.9965 0010467 271.5328  88.4708 15.19292842500424
Epoch: 2025-07-01T04:52Z
TLE epoch observation values (Epoch: 2025-07-01T04:52:26.779Z)
Latitude
0.00004°
Longitude
-110.617°
Altitude
510.881 km
Speed
7.609 km/s
True Right ascension
16h 07m 59s
True Declination
0° 00' 00"
Sunlit
Object was in full shadow at epoch
Visualization orbit readout
Latitude
14.61322°
Longitude
-112.22621°
Altitude
512.117 km
Speed
7.608 km/s
Apparent Right ascension
14h 32m 55s
Apparent Declination
-12° 43' 10"
Sunlit
Object is in full shadow
Visualization observer readout
Local Sidereal Time
00:29:21
Azimuth
306.328° NW
Elevation
-51.565°
Doppler factor
1
Orbital elements
Apogee altitude
512.148 km
Perigee altitude
497.739 km
Semi-major axis
6,883.081 km
Eccentricity
0.00105
Inclination
97.421°
RAAN
241.9965°
Arg. of periapsis
271.5328°
True anomaly
Unknown
Mean anomaly
88.4708°
Eccentric anomaly
Unknown
Mean motion
3.80075 °/min
Orbital period
94.72 mins
BSTAR
0.00016451
Loading maneuver chart data...
Loading SW <> Apogee altitude chart data...
Loading historical data...
Loading historical data...
Loading historical data...
Loading historical data...
Loading historical data...
Loading historical data...
Loading historical data...

CARTOSAT 2C Visibility forecast

Observer location: undefined°, undefined°

Span
Click to sort rows by Start time (UTC) header in descending order
Start Az.
Max El. time (UTC)
Max El. Az.
Max El.
End time (UTC)
End Az.
6 mins2025-07-01 16:30:30.747Z29.363° NE2025-07-01 16:33:30.747Z106.657° ESE34.902°2025-07-01 16:36:30.747Z170.551° S
4 mins2025-07-02 04:43:30.747Z220.866° SW2025-07-02 04:45:30.747Z268.927° W23.916°2025-07-02 04:47:30.747Z311.896° NW
|